Theta_e
328 328 327 326 326 326 326 327 327 328 329 329 329 327 327 327 325 324 325 324 325 325 324 324 323 323 324 324 324 323 321 324 324 321 321 322 320 318 317 314 309 305 305 304 303 302 301 300 298 297 295 295 295 295 295 294 294 294 294 294 293 293 292 290 289 289 289 289 289 289 289 289 289 289
328 329 328 328 327 326 326 326 327 328 328 329 329 328 327 326 326 325 325 324 326 325 325 325 323 321 321 320 320 319 318 322 320 314 315 319 319 315 310 308 305 303 302 301 300 299 298 297 296 296 295 295 295 295 294 294 294 294 294 293 293 292 291 289 289 289 289 289 289 289 289 289 289 289
327 328 328 328 328 328 327 327 327 327 328 328 328 329 328 326 326 327 325 325 325 325 326 325 322 321 319 319 321 319 317 319 314 308 311 317 316 309 304 303 302 301 300 300 298 298 297 296 296 295 295 295 294 294 294 294 294 293 293 292 292 291 289 289 289 289 289 289 289 289 289 289 289 289
326 327 328 329 329 328 329 328 327 327 328 328 329 329 328 327 326 326 325 325 325 326 327 325 323 321 318 319 323 320 316 315 310 305 310 313 308 302 300 300 301 300 300 299 298 298 297 296 295 295 295 294 294 294 294 294 293 293 292 292 291 290 289 289 289 289 289 289 288 288 289 289 289 288
324 325 327 328 328 328 329 329 328 328 328 328 329 329 329 327 326 326 326 326 325 327 327 325 323 320 318 317 319 318 316 312 306 304 307 306 301 299 299 299 299 299 299 298 298 298 297 295 295 294 294 294 294 294 293 293 293 292 292 291 290 289 289 289 289 289 289 289 288 289 289 288 289 288
321 323 326 326 326 327 328 330 330 329 328 328 329 328 328 328 327 326 326 325 326 328 328 325 321 319 318 315 314 316 316 309 304 303 303 301 299 299 299 298 298 298 297 297 297 297 296 295 294 294 294 294 293 293 293 292 292 292 291 290 289 289 289 289 289 289 288 288 288 289 288 288 289 288
320 321 323 326 326 327 328 330 330 330 329 329 328 328 329 329 328 327 326 324 325 329 327 324 320 318 317 314 311 313 312 307 303 302 301 300 300 299 298 297 297 296 296 296 296 296 295 295 294 294 293 293 293 292 292 292 292 291 290 289 289 289 289 289 289 289 288 288 288 288 288 288 289 288
320 320 321 324 325 326 328 329 329 329 331 330 329 329 328 328 328 327 326 325 324 328 327 323 320 317 316 313 310 308 307 304 303 302 301 301 300 299 297 296 295 295 295 295 295 295 295 294 293 293 293 293 292 292 291 291 291 291 290 289 289 289 289 289 288 288 288 288 288 288 288 288 288 288
320 320 321 322 323 325 328 329 328 329 330 329 329 329 328 328 329 328 327 326 325 327 327 323 319 317 315 312 308 306 305 303 302 302 301 301 299 298 297 295 295 294 294 294 294 294 294 293 293 292 292 292 292 291 291 291 291 290 289 288 289 289 289 288 288 288 288 288 288 288 288 288 288 288
319 320 321 321 322 323 326 328 328 328 328 329 329 330 329 328 328 329 328 327 326 327 326 322 318 317 314 310 307 307 306 303 302 301 300 300 299 298 296 295 294 293 293 293 293 293 292 292 292 292 291 291 291 291 291 290 290 289 288 288 289 289 289 288 288 288 288 288 288 288 288 288 288 288
318 319 320 321 321 322 325 327 328 327 327 329 330 331 329 327 329 330 329 327 326 326 325 321 319 317 313 310 308 307 306 304 303 302 301 300 299 298 296 295 293 293 292 292 292 292 292 291 291 291 291 290 291 290 290 290 289 288 288 288 288 288 288 288 288 288 288 288 288 288 288 288 288 288
317 318 319 320 321 321 323 327 328 327 328 330 331 331 329 328 330 331 330 329 327 326 324 322 320 317 314 312 309 307 305 304 303 302 302 301 300 298 297 295 294 294 292 291 291 291 291 291 291 290 290 290 290 290 289 289 288 288 288 288 288 288 288 288 288 288 288 288 288 288 288 288 288 288
317 318 319 320 321 321 322 325 327 327 328 329 331 331 329 329 330 331 330 329 328 326 324 322 320 317 315 313 309 306 305 305 304 303 302 301 300 298 298 297 295 295 293 292 291 291 290 290 290 290 290 290 290 289 289 289 289 288 288 288 288 288 288 287 287 288 288 288 288 288 288 288 288 288
316 318 319 319 320 321 321 322 325 327 327 328 330 331 329 328 329 330 330 329 328 326 324 321 319 317 316 313 309 307 307 307 306 304 303 302 300 298 298 296 295 294 293 293 292 291 291 291 292 292 292 292 291 290 291 290 290 289 288 288 288 288 287 287 287 287 288 288 288 288 288 288 288 288
316 317 319 319 320 321 320 320 322 326 327 328 328 328 328 328 329 330 330 329 328 327 325 321 319 318 316 313 310 309 308 307 306 304 304 303 301 299 298 297 295 294 293 293 293 292 292 293 294 294 294 294 292 293 293 292 291 289 287 287 288 287 287 287 287 287 288 288 288 288 288 288 287 288
316 317 318 319 320 321 321 321 321 325 328 328 328 328 328 328 328 329 330 329 328 327 325 322 320 320 317 313 311 310 309 308 306 305 304 303 301 301 300 300 298 295 294 294 294 294 293 293 294 295 294 294 293 293 293 292 290 288 287 288 288 287 288 288 287 287 287 287 288 288 287 287 287 287
316 317 318 319 320 321 321 321 321 324 327 329 329 328 327 327 327 328 329 328 327 326 324 322 320 320 318 314 313 312 310 308 307 306 305 303 302 302 302 301 298 295 294 294 295 295 294 293 294 295 294 294 294 293 291 290 288 287 287 287 287 287 288 288 287 287 287 288 288 287 287 287 287 287
315 317 318 318 320 321 321 321 321 323 326 327 329 327 326 327 326 327 328 328 327 326 325 323 322 321 319 318 316 314 311 308 307 307 305 303 302 302 301 299 297 295 295 295 296 297 295 294 294 295 295 294 294 292 291 289 288 287 287 287 287 288 288 288 287 287 287 287 287 288 287 287 287 288
312 315 318 318 319 321 321 321 322 323 324 325 326 325 324 325 326 326 326 327 326 325 324 324 323 321 320 319 318 314 310 308 307 306 305 303 301 300 298 296 295 295 295 296 297 298 297 294 294 295 295 294 293 292 291 289 288 287 287 287 287 288 288 288 287 287 287 287 287 287 287 287 287 287
309 313 317 319 319 321 321 321 322 322 323 324 324 322 320 321 323 323 323 324 324 322 321 322 322 321 319 318 317 314 309 308 306 305 303 301 299 299 297 295 294 293 294 295 297 298 297 294 294 295 294 293 293 292 290 289 288 287 287 287 287 288 288 288 287 287 287 287 287 287 287 287 287 287
308 311 315 318 319 320 321 321 321 322 323 323 323 321 318 317 318 318 317 318 319 319 319 320 320 320 319 317 315 313 310 308 307 304 301 299 299 299 298 296 295 294 293 294 296 298 298 295 294 295 294 293 294 293 291 290 288 287 287 287 288 288 287 288 288 288 287 287 287 287 287 287 287 287
308 310 313 317 319 320 321 321 321 323 323 322 322 319 316 315 314 312 311 313 313 314 315 316 315 315 314 313 312 311 308 307 306 305 302 299 299 299 299 297 296 294 294 293 294 296 297 294 294 295 294 293 293 293 293 291 290 289 289 289 289 288 288 287 288 288 288 287 287 287 287 287 287 288
308 310 312 315 318 319 320 320 321 322 322 321 321 319 315 313 311 309 309 310 310 310 311 311 310 309 308 308 307 306 305 304 304 305 304 300 299 300 299 298 297 296 295 293 293 296 297 294 294 295 295 294 294 293 292 292 291 291 291 291 291 290 289 288 289 289 289 288 288 288 287 287 287 288
309 311 313 316 318 318 319 320 321 321 321 320 320 318 316 313 311 308 307 307 308 309 308 307 305 304 302 303 303 302 301 301 301 302 302 301 300 300 299 298 298 299 296 292 292 295 296 294 294 295 295 296 296 294 293 292 292 292 291 291 292 291 291 290 290 291 291 290 290 289 288 287 287 288
310 312 314 317 318 318 319 320 320 320 320 320 319 318 317 316 314 309 305 304 306 306 304 302 301 299 298 299 299 298 298 298 298 299 299 299 299 299 299 298 298 298 294 291 292 295 295 294 294 294 294 295 296 295 294 293 292 292 291 291 292 292 291 291 291 292 292 291 291 290 289 288 288 288
311 313 315 316 317 318 319 319 320 320 319 318 317 316 316 316 313 308 305 304 303 302 301 298 297 297 296 295 295 295 295 296 296 296 297 296 296 297 297 297 297 295 292 289 291 294 295 294 294 294 294 295 296 294 294 294 293 292 292 292 292 292 291 291 291 292 292 292 292 291 290 289 289 289
312 313 314 314 316 318 319 318 318 318 318 316 315 315 315 314 310 306 303 302 301 299 298 296 295 295 294 293 293 293 293 294 294 294 294 294 295 294 294 294 293 292 290 288 290 293 294 294 294 295 295 294 295 294 294 294 294 292 292 292 292 291 292 291 291 292 292 291 291 291 290 290 290 290
313 313 313 313 315 316 317 317 316 315 315 314 313 313 312 310 307 305 302 300 299 297 296 295 294 293 293 292 292 292 291 292 292 292 292 292 292 292 291 290 290 289 289 289 290 292 293 293 292 293 293 293 293 294 294 294 293 293 292 292 292 292 292 291 291 291 291 291 291 291 291 291 291 291
312 312 311 312 314 315 314 313 312 310 311 312 311 311 309 306 305 303 300 299 298 296 295 294 293 292 291 291 291 290 290 289 289 289 289 289 289 288 288 288 288 288 288 289 289 290 291 291 291 291 291 292 292 293 293 293 293 292 291 291 292 292 291 291 291 291 291 291 291 291 291 291 291 291
311 310 310 310 311 311 309 309 307 307 307 307 307 306 305 303 302 300 299 297 296 295 294 293 292 291 290 290 289 289 288 288 288 288 288 287 287 288 288 288 288 287 287 287 287 288 289 289 289 290 291 291 291 291 292 292 292 292 291 291 291 291 291 291 291 291 291 291 290 291 291 291 291 291
307 306 306 306 306 305 304 304 304 304 303 302 301 300 299 299 299 298 298 297 296 294 292 291 290 289 289 289 289 289 289 288 288 287 287 288 288 288 289 288 288 287 286 286 286 287 287 287 288 289 291 291 290 291 291 291 292 292 292 291 291 291 291 291 291 291 290 290 290 291 291 291 291 291
301 300 300 300 300 299 299 298 298 298 298 297 297 296 296 296 296 296 295 295 293 292 291 290 289 288 288 289 289 289 289 288 288 288 288 289 289 289 289 289 288 288 287 287 286 286 286 286 287 288 289 290 290 291 290 290 291 292 292 291 291 291 291 291 290 290 290 290 290 291 291 291 291 291
297 296 296 296 295 295 295 294 294 294 294 294 294 294 294 294 293 293 293 292 291 290 289 289 289 289 289 289 289 289 289 288 289 289 289 289 289 289 290 289 289 289 288 288 287 287 286 285 286 287 287 287 288 290 291 291 291 291 291 291 291 291 291 290 290 290 289 290 291 291 291 291 291 291
296 294 294 294 294 293 293 293 293 293 292 293 292 292 292 292 292 292 292 291 290 289 289 289 288 288 289 289 289 288 288 288 288 288 288 289 289 289 289 289 289 288 288 288 287 287 287 287 287 287 287 287 287 288 289 291 292 291 291 290 290 290 290 290 290 289 289 290 290 290 290 290 290 290
295 294 294 294 293 293 293 293 293 292 292 292 291 291 291 291 291 291 290 289 289 288 288 288 288 288 289 288 288 288 287 288 288 288 288 289 289 288 288 288 288 288 288 288 288 288 288 288 289 289 289 289 289 288 287 287 289 290 290 290 290 290 290 289 289 289 290 290 290 290 290 290 290 290
294 294 294 293 292 292 292 292 292 292 291 291 291 290 290 290 290 289 289 289 288 288 288 288 288 289 289 288 287 287 287 287 288 288 288 288 288 288 287 287 287 288 288 288 288 288 288 289 289 290 291 291 291 291 288 285 285 287 288 289 289 289 289 288 289 289 290 290 290 290 290 289 289 289
294 294 293 292 292 292 291 291 291 291 291 290 290 290 289 289 289 288 288 288 288 288 288 288 288 288 288 287 287 287 287 288 288 288 288 288 288 288 288 287 287 288 288 288 288 288 288 289 289 290 291 292 291 292 290 287 285 286 286 287 288 288 288 288 288 289 289 289 289 289 289 289 289 289
293 293 292 292 292 292 291 290 290 290 290 289 289 289 288 288 288 288 287 288 287 287 287 287 287 287 287 286 287 287 287 288 288 288 288 288 288 288 288 287 287 287 287 287 287 288 288 288 288 289 290 291 291 291 290 289 288 287 286 286 286 287 287 288 288 289 289 289 289 289 288 288 288 288
292 292 292 291 291 291 290 290 290 290 289 289 288 288 287 287 287 287 287 287 287 287 287 286 286 286 286 287 287 288 288 288 288 288 288 288 288 288 287 287 287 286 287 287 288 288 288 288 289 289 289 290 290 289 289 289 289 287 286 285 285 285 286 287 287 288 288 288 288 288 288 288 288 288
291 291 291 291 290 290 290 289 289 289 288 288 287 287 287 287 287 287 286 286 286 286 286 286 286 287 287 287 287 287 288 287 288 288 288 288 288 288 287 287 287 287 287 288 288 288 288 287 286 286 287 287 287 287 287 288 288 288 287 286 286 285 284 285 286 287 287 287 288 288 288 288 288 288
290 290 290 290 289 289 289 289 288 288 288 287 287 287 287 287 286 286 286 286 286 286 286 286 286 287 287 286 287 287 288 287 287 287 287 287 287 286 286 286 287 287 287 288 288 288 287 284 283 283 285 286 286 287 288 289 289 289 288 287 287 286 284 284 284 285 286 286 287 287 287 287 287 287
289 289 289 289 289 288 288 288 288 287 287 287 287 287 287 286 286 286 286 286 286 286 286 286 286 286 286 286 287 287 287 287 287 287 286 286 285 285 286 287 287 287 287 288 287 286 285 284 284 285 286 287 287 288 289 289 289 289 288 287 287 286 286 285 285 285 285 286 286 287 286 286 286 287
288 288 288 288 288 288 288 287 287 287 287 287 287 286 286 286 286 285 285 285 285 285 286 286 286 286 286 287 287 286 286 286 285 286 286 285 286 286 286 286 286 287 287 286 286 285 285 285 286 287 288 287 287 288 288 288 288 288 288 288 287 287 287 287 286 286 286 286 286 286 286 285 286 286
288 287 287 287 287 287 287 287 287 287 287 287 286 286 286 285 285 285 285 285 285 285 285 286 286 286 286 286 286 286 285 285 285 285 286 286 286 286 286 285 286 286 286 286 286 286 286 286 286 287 287 287 286 287 287 287 288 288 288 287 287 287 288 288 287 287 288 287 286 286 286 285 285 285
287 287 287 287 287 287 287 287 287 287 287 287 286 286 285 285 285 284 284 285 285 285 285 285 285 285 286 286 286 286 285 285 286 286 286 286 285 285 285 285 285 286 286 286 286 286 287 286 286 287 287 286 286 286 286 286 287 287 287 287 287 288 288 288 288 288 289 288 287 287 286 286 286 285
Wind_Speed
31 33 37 41 42 41 40 39 35 31 29 26 26 25 22 18 12 8 10 10 13 18 20 19 19 20 17 14 16 16 15 22 26 24 25 27 24 22 21 21 20 19 18 17 16 15 13 12 11 10 10 9 8 8 7 6 4 3 4 5 7 8 10 11 11 11 12 12 14 14 14 14 15 15
30 31 34 36 39 41 42 42 39 36 33 31 32 28 25 24 18 12 10 10 14 18 20 19 19 22 22 18 18 17 17 24 23 17 22 27 26 24 23 21 21 19 18 16 15 15 13 11 10 10 9 9 8 7 7 6 5 4 5 6 8 9 11 11 10 11 12 12 13 14 14 15 15 15
29 32 35 35 36 40 42 42 41 40 37 35 35 34 29 26 24 19 13 9 14 19 20 19 19 23 23 20 22 20 19 25 21 16 22 27 27 26 23 21 20 18 17 16 15 13 11 10 10 9 9 8 8 7 7 6 5 5 5 7 9 10 11 10 10 10 11 12 13 14 15 15 15 16
27 30 32 34 36 37 39 41 41 42 39 35 35 35 31 27 26 24 18 11 12 18 21 20 18 22 22 21 23 23 25 26 21 17 24 27 26 25 23 21 20 18 17 15 14 12 10 9 9 8 8 8 8 7 6 6 5 5 6 8 9 10 10 10 10 10 11 12 13 14 15 15 16 16
27 28 30 33 36 37 37 38 41 43 42 38 35 32 31 29 27 26 21 16 13 14 19 19 18 21 22 21 22 26 30 28 20 19 25 26 25 24 23 21 19 17 16 14 13 11 10 9 9 8 8 7 7 7 6 6 5 6 7 8 9 9 9 10 10 11 11 12 13 14 15 15 16 15
29 28 29 32 34 35 35 34 36 39 42 40 37 34 32 30 28 27 25 22 17 12 14 16 18 20 21 21 22 27 32 29 22 22 26 23 21 22 22 22 20 17 15 14 12 11 10 10 9 8 8 7 7 7 6 6 6 7 8 8 9 9 9 10 10 11 12 13 14 14 15 16 16 15
33 31 30 31 32 32 33 34 34 35 38 39 38 36 35 32 28 27 26 27 21 15 18 18 18 20 20 20 22 25 29 28 24 23 23 19 17 18 19 21 21 18 15 14 12 11 10 10 10 9 8 8 7 7 6 6 6 7 8 8 8 9 10 10 11 12 12 13 14 14 15 16 16 14
34 34 32 31 31 32 32 33 35 34 35 39 38 37 37 35 30 28 28 28 23 18 21 20 19 21 20 21 23 25 25 24 22 22 20 16 15 16 15 19 21 18 15 13 12 11 11 11 10 9 9 8 8 7 7 6 6 7 7 7 8 9 10 11 11 12 13 14 14 15 15 16 15 14
32 35 34 32 31 32 31 33 37 36 36 39 39 38 38 34 29 28 28 28 24 20 21 20 19 20 20 20 22 25 26 23 20 19 18 16 16 16 15 18 20 17 15 14 13 12 12 11 10 9 9 8 8 7 6 6 6 7 7 7 8 9 10 11 12 13 13 14 14 15 15 16 16 15
32 33 34 34 33 33 32 34 38 39 38 39 38 38 38 33 28 26 27 28 28 24 22 21 21 21 21 22 21 23 27 26 23 20 18 15 15 16 17 19 19 17 16 15 14 14 13 12 11 10 9 8 8 7 6 6 7 7 7 7 8 9 10 11 12 13 14 14 14 15 16 16 16 16
32 33 34 35 34 34 34 35 37 40 40 37 37 38 39 37 29 23 25 30 29 25 22 21 22 22 22 23 22 23 25 24 23 23 22 18 16 16 19 21 19 18 18 17 16 15 14 13 12 10 9 9 8 7 7 7 8 8 7 8 8 9 10 11 12 13 13 14 14 15 16 17 17 17
33 33 34 36 35 35 35 35 36 40 40 35 34 37 39 40 33 24 24 27 26 24 22 20 21 21 21 21 22 23 24 23 21 22 23 21 19 18 18 19 20 19 19 18 17 15 15 13 12 10 9 9 8 7 8 8 9 9 8 8 9 9 10 12 12 13 13 13 14 15 16 17 18 18
34 33 33 35 36 36 36 35 35 39 41 37 34 35 38 39 34 27 26 26 23 23 22 19 20 21 21 22 23 24 26 25 24 24 23 20 20 20 17 16 18 19 19 17 16 16 15 13 11 10 10 10 9 7 7 8 9 10 9 8 9 10 11 12 12 13 13 13 15 16 17 18 19 19
34 35 34 33 36 38 39 38 37 38 41 41 38 38 40 40 35 29 28 26 23 24 22 20 21 20 19 23 26 27 27 26 25 26 25 22 21 21 18 14 15 18 18 16 15 15 15 13 11 11 11 11 9 7 7 10 11 10 9 9 9 10 11 12 12 13 13 14 15 16 17 19 19 20
33 34 34 33 34 37 40 40 39 38 40 43 44 44 43 42 38 32 29 26 25 25 22 21 22 21 21 24 26 25 25 25 25 26 26 24 24 23 19 15 15 18 19 17 14 14 15 15 12 11 12 11 9 10 14 17 15 13 10 9 10 10 11 12 12 12 13 14 15 16 18 19 20 20
32 32 33 33 33 34 38 39 39 38 40 44 47 47 47 46 42 36 31 28 27 26 23 21 22 22 22 24 25 26 26 26 26 25 24 24 24 23 20 17 17 21 22 18 14 13 15 15 12 10 11 10 10 14 19 19 16 13 11 10 10 10 11 11 11 12 12 14 15 16 17 19 19 20
32 32 32 32 32 33 35 37 37 37 40 45 47 46 48 50 46 40 35 32 30 28 25 24 25 25 25 28 33 36 33 29 27 26 25 25 24 21 18 17 19 25 26 19 14 12 13 15 14 11 11 11 11 15 19 18 16 13 10 9 9 9 10 10 10 11 12 13 15 16 16 18 19 20
32 33 32 31 32 32 34 35 37 37 38 42 45 44 45 49 49 44 38 34 32 30 28 29 31 32 32 36 40 41 36 32 31 30 28 28 26 21 18 17 20 26 27 20 13 11 12 14 13 11 11 11 10 13 16 16 13 11 9 8 8 8 8 9 9 10 12 13 14 15 16 18 19 20
33 32 33 33 32 32 33 34 36 37 34 35 40 40 39 43 45 42 37 35 33 31 31 33 35 34 34 36 37 37 36 32 32 34 33 32 30 24 19 17 17 22 26 20 13 11 12 13 12 10 11 11 11 12 14 14 11 10 8 7 6 7 7 7 9 10 11 12 13 14 16 18 19 20
35 34 34 34 33 33 33 34 36 38 34 31 33 31 27 32 36 35 33 33 32 31 30 31 32 32 32 33 33 36 37 34 34 35 31 30 30 24 17 15 15 18 23 21 14 10 10 12 11 10 10 11 11 11 10 10 10 9 7 6 5 6 6 7 8 9 10 11 13 14 16 17 18 19
35 36 36 34 33 33 34 34 35 37 35 30 28 27 24 27 29 27 26 28 29 28 28 29 29 29 30 30 30 34 36 36 38 37 31 29 29 23 15 13 14 15 19 20 15 10 9 11 11 10 10 11 11 10 9 8 8 8 7 6 5 5 6 7 7 7 8 10 12 14 15 17 18 19
35 36 38 37 35 34 35 35 34 37 37 30 27 30 31 31 29 26 24 25 25 25 25 24 23 23 25 26 27 31 33 34 38 40 36 34 31 23 15 14 15 14 15 19 17 11 9 11 12 10 9 9 10 10 10 9 7 6 5 5 6 6 7 8 8 8 9 11 12 13 14 16 18 17
33 34 37 39 38 35 33 32 34 37 37 31 29 34 36 33 31 30 28 28 28 27 25 24 22 20 21 23 25 28 30 32 34 36 38 37 33 24 18 18 16 11 11 18 20 14 10 12 12 11 9 8 9 11 10 9 8 6 5 5 7 9 10 11 10 11 12 13 13 14 15 15 16 14
31 33 34 36 38 38 33 29 32 37 37 32 32 37 38 36 34 33 30 29 31 30 29 27 25 24 25 26 28 30 30 31 29 28 32 33 28 22 20 19 16 10 10 19 22 14 10 12 12 12 10 6 6 10 10 9 9 7 5 4 6 8 9 10 10 11 13 14 14 15 15 15 14 13
29 31 32 31 33 37 35 29 31 35 36 33 35 39 41 39 38 36 33 31 33 33 32 31 28 29 29 29 29 29 27 25 24 23 26 26 20 17 18 17 15 10 11 20 23 14 9 12 11 11 11 6 4 9 9 9 8 7 5 5 5 5 6 7 7 8 10 12 12 12 14 15 14 14
28 29 30 27 27 33 34 29 29 32 34 34 34 38 40 39 38 38 37 36 36 36 36 35 33 32 31 28 26 26 25 24 24 24 25 23 18 15 14 14 14 13 14 22 23 13 9 11 10 9 10 7 5 6 7 7 7 6 5 4 4 5 5 6 7 7 8 9 9 11 14 15 14 15
27 27 26 24 24 29 30 27 27 31 34 34 34 37 39 38 38 38 38 38 37 37 37 36 34 32 31 29 28 29 28 27 27 26 25 24 22 19 17 15 14 15 18 22 19 10 8 10 9 7 7 7 6 6 6 5 5 4 4 3 4 5 4 6 7 7 8 9 9 11 14 13 12 14
26 25 24 23 24 26 26 26 27 31 34 35 35 36 38 38 38 39 38 37 36 36 33 31 30 30 30 31 30 28 27 28 29 27 24 23 22 21 21 20 19 18 18 16 12 8 8 10 8 6 6 5 4 4 3 3 3 2 2 3 4 4 4 6 7 7 8 9 10 11 12 11 11 13
25 25 23 24 25 25 25 26 28 31 34 36 36 37 39 40 39 39 38 36 36 35 31 28 28 28 28 30 30 29 30 32 31 29 27 25 24 23 22 22 21 19 17 13 11 10 9 9 8 7 6 4 2 2 2 1 2 1 1 3 4 5 5 6 7 8 9 9 11 11 11 11 11 12
22 22 23 26 27 26 27 29 32 33 33 34 37 39 40 41 41 40 40 38 38 37 34 31 29 28 28 30 32 32 32 31 30 30 29 26 24 23 22 21 19 16 15 13 12 10 8 8 9 7 6 4 3 2 2 1 2 2 1 2 4 5 4 5 7 8 9 11 12 11 11 11 11 11
22 23 25 27 29 28 29 31 34 35 35 36 37 37 36 38 39 39 40 42 42 41 38 34 32 32 32 31 29 28 27 26 25 27 27 24 22 20 20 20 18 15 14 13 13 12 10 9 9 7 6 5 4 3 2 1 2 2 2 2 4 4 4 6 7 8 9 12 12 10 10 11 11 11
26 27 29 30 31 32 32 31 32 34 34 34 35 34 33 34 34 35 38 40 41 41 41 39 36 34 32 28 25 24 24 24 23 22 22 21 20 19 18 18 17 15 14 12 11 11 11 11 9 7 6 5 4 3 2 2 2 2 2 2 4 4 5 6 7 8 11 13 12 10 11 11 11 11
30 28 28 29 29 31 32 30 29 31 31 30 29 31 33 35 35 37 40 40 38 40 42 42 39 34 29 25 23 23 24 23 21 20 21 21 20 18 18 17 16 15 14 12 10 10 10 10 9 7 5 4 4 2 1 1 2 2 2 3 4 5 5 6 7 9 12 13 12 12 13 12 12 11
31 25 23 23 23 25 28 28 26 28 31 32 31 31 33 36 38 38 38 38 39 41 41 40 38 34 28 24 24 25 25 23 21 20 20 19 18 18 18 17 15 14 14 13 11 9 9 9 8 7 5 4 3 3 1 1 1 2 3 4 4 5 5 6 8 9 10 11 12 13 14 13 12 12
25 23 22 21 20 21 23 23 24 27 31 34 34 32 32 32 34 35 35 37 39 39 38 37 35 30 25 24 27 29 27 24 22 20 19 18 17 17 18 17 16 14 13 12 11 9 8 7 7 6 5 5 4 3 2 1 1 3 4 5 5 5 6 8 9 10 10 9 10 12 13 13 13 13
20 20 21 20 20 20 19 22 27 32 34 35 33 31 31 30 30 32 35 37 39 38 38 38 34 27 24 28 30 29 26 24 22 19 18 18 18 18 18 17 16 14 13 12 10 8 7 6 5 5 6 6 5 3 2 2 2 2 4 5 6 6 7 9 10 9 9 9 10 10 12 13 14 15
17 17 20 21 23 22 23 27 32 32 33 33 31 30 33 34 31 32 35 38 37 35 35 37 35 30 30 33 32 28 24 22 21 20 19 18 18 18 17 16 15 14 12 11 9 8 6 5 3 3 3 4 4 3 3 3 2 2 3 4 6 7 7 9 9 9 8 9 10 10 11 13 14 15
18 19 21 23 25 25 26 31 33 31 31 34 34 33 35 35 34 35 36 36 35 34 34 36 35 32 32 34 31 25 21 20 20 20 19 18 18 18 17 15 14 13 12 11 9 7 6 5 4 2 1 1 0 2 2 3 2 1 3 4 5 6 8 8 8 9 9 9 10 10 11 12 13 15
20 21 22 24 27 27 27 30 33 33 33 35 36 36 36 35 35 36 36 35 34 35 36 35 34 32 31 29 24 21 20 21 21 20 18 18 18 17 16 15 14 13 11 10 9 8 6 6 5 5 5 4 4 3 2 1 2 0 4 5 6 7 7 7 8 9 9 9 11 12 12 12 13 15
20 21 23 25 27 29 29 29 32 35 35 36 37 37 35 35 35 35 35 35 35 35 35 34 32 30 27 25 22 21 21 21 20 19 19 18 17 17 16 15 14 12 11 10 9 8 7 6 6 6 6 6 6 5 2 1 2 2 3 5 8 10 9 7 7 8 9 10 12 13 12 13 14 15
20 20 22 24 27 29 31 31 33 35 36 38 38 36 33 33 34 34 34 35 36 36 35 33 29 27 26 26 25 23 21 20 20 20 19 19 18 18 17 15 13 12 11 10 9 9 8 7 7 8 9 6 3 1 1 2 2 2 1 3 7 11 11 8 6 7 8 9 10 11 11 13 14 15
22 22 23 25 26 28 30 32 34 37 38 39 39 37 34 34 34 34 34 35 36 37 35 29 26 26 26 25 23 22 22 22 21 19 19 20 21 19 16 13 12 11 11 10 10 9 8 7 6 6 6 4 1 1 1 1 1 1 1 1 4 7 9 8 7 6 6 6 6 7 9 12 13 13
26 27 27 27 26 27 29 32 36 39 42 41 40 38 38 37 36 36 36 35 36 35 31 26 24 23 22 20 20 23 24 24 22 21 20 19 18 16 13 12 12 11 11 11 10 9 8 6 4 3 3 3 3 2 3 2 1 1 1 1 3 5 6 7 8 8 8 6 4 4 7 10 11 12
25 26 27 29 29 29 30 33 36 39 40 39 38 38 38 38 37 37 36 35 34 31 29 26 25 24 21 20 20 22 23 23 22 21 19 16 15 15 14 13 12 11 11 11 10 8 7 6 4 4 4 4 4 4 3 2 2 2 2 2 3 4 3 4 7 9 9 8 6 4 9 12 13 14
24 23 24 28 31 32 33 34 36 37 36 36 37 37 37 37 37 36 35 33 31 30 28 28 27 25 21 19 19 21 21 21 20 18 17 16 16 15 14 13 12 11 10 9 9 8 7 6 5 5 5 4 3 3 3 3 2 2 3 3 3 4 4 4 5 7 6 5 4 6 12 15 15 17
Wind_Direction
224 221 220 221 223 225 226 227 227 229 230 235 237 229 224 229 229 224 222 218 215 205 193 194 202 199 192 187 181 171 178 187 179 176 183 184 188 193 196 198 197 198 200 199 199 198 198 203 209 215 218 217 221 224 226 228 236 260 291 310 319 324 330 335 337 339 344 347 351 356 0 0 358 356
227 223 222 221 222 222 224 226 225 226 227 230 237 237 227 223 227 232 230 219 217 205 188 189 197 195 191 185 178 171 178 185 174 169 182 186 190 193 194 197 196 197 199 198 199 198 198 203 206 210 214 216 220 222 226 231 243 271 296 309 316 324 329 334 336 337 340 346 351 355 357 357 355 351
230 226 225 221 219 220 222 223 222 224 227 228 234 240 235 223 220 228 235 229 214 200 191 194 186 178 180 184 183 177 177 179 168 166 186 190 191 190 189 193 194 195 197 195 195 193 193 197 200 207 211 214 218 219 226 234 251 278 296 308 316 324 328 332 337 337 340 346 350 354 354 352 351 346
236 231 228 225 221 220 219 220 220 222 225 226 228 235 239 230 221 222 228 237 221 198 195 197 178 168 174 181 186 180 174 173 164 170 189 190 186 183 183 188 190 191 192 191 189 186 186 192 196 203 207 210 218 220 229 240 258 281 295 309 317 324 328 331 336 339 343 347 349 352 350 347 347 342
241 237 234 232 228 223 219 218 219 220 222 224 225 230 239 237 226 220 219 229 229 200 196 195 169 164 173 174 179 180 174 170 165 175 186 182 177 178 180 182 184 188 190 186 185 181 181 189 194 200 204 208 218 223 231 246 264 283 297 310 317 324 327 329 335 339 343 346 348 349 345 343 342 338
240 240 238 237 234 230 225 220 217 217 218 221 224 228 238 239 229 221 217 222 222 188 180 183 161 162 171 165 171 181 177 169 166 174 175 168 170 177 180 180 180 184 186 182 182 179 180 189 193 198 203 208 219 227 237 250 268 286 299 311 320 325 326 329 335 338 341 343 344 344 342 340 337 335
239 239 240 239 236 233 232 226 219 215 215 218 221 224 232 236 230 224 220 222 218 182 169 177 165 165 169 160 165 177 176 170 165 165 164 159 163 169 175 181 180 179 184 183 180 180 182 190 195 198 204 211 221 231 241 255 273 288 301 313 320 323 325 328 333 335 337 339 340 340 338 336 334 333
242 239 239 240 237 232 231 229 224 217 211 213 216 219 227 231 225 220 219 222 219 191 180 185 173 166 165 158 160 163 163 164 161 157 157 158 157 154 161 178 180 177 182 184 182 184 186 191 197 202 208 215 224 234 245 261 278 289 299 311 318 320 322 326 330 331 332 333 336 337 335 332 330 329
245 241 239 240 240 235 230 228 227 222 213 211 213 217 223 226 221 214 213 217 215 193 181 181 170 163 159 153 157 160 157 155 154 154 156 155 152 148 157 175 179 175 177 183 183 184 188 194 200 206 212 218 226 236 249 264 275 285 294 304 312 316 319 323 325 327 329 330 332 333 331 329 328 326
243 243 240 239 239 237 234 229 227 226 221 215 212 213 217 221 223 216 209 213 213 196 178 168 160 159 157 151 156 165 163 158 157 157 156 155 155 159 165 172 176 176 178 183 184 185 190 195 201 209 216 222 229 239 253 266 272 278 286 296 306 311 315 319 321 323 325 326 328 329 328 327 325 324
241 242 242 239 238 238 236 232 227 226 226 219 212 211 213 216 222 218 210 213 212 196 177 166 161 160 160 157 159 166 166 163 163 161 159 160 163 166 170 171 171 175 181 183 184 189 193 196 203 212 217 223 234 246 256 264 268 271 279 289 300 308 312 315 317 319 322 323 324 326 327 325 323 322
238 240 241 239 238 237 237 235 229 225 224 221 215 211 209 212 218 215 212 217 212 195 179 170 164 160 159 160 159 162 165 165 169 171 166 165 165 164 168 173 173 176 180 182 183 188 193 197 204 212 219 229 237 245 256 264 264 264 272 285 295 303 308 310 313 316 318 320 323 325 325 323 321 320
237 238 239 238 237 237 236 236 233 227 223 220 216 210 204 209 216 213 212 217 208 191 181 168 162 162 163 165 163 166 174 176 175 176 171 164 162 159 160 170 179 180 178 176 179 187 192 194 202 207 214 226 233 243 259 259 255 258 266 280 293 301 304 306 309 313 315 319 323 325 324 321 319 318
235 235 237 237 236 236 237 237 236 232 227 223 220 213 207 209 214 210 207 207 198 189 182 167 163 166 167 170 171 174 181 180 174 172 171 165 160 158 156 162 177 182 176 170 173 185 188 186 193 199 203 211 220 228 223 217 233 260 272 279 291 298 300 304 306 310 314 319 323 324 323 320 318 319
235 233 235 235 235 235 235 236 236 233 230 227 224 221 213 210 211 207 201 199 197 197 190 171 167 171 171 175 179 178 178 178 175 172 172 167 162 162 163 164 175 183 179 172 173 183 187 188 193 201 202 203 206 210 210 215 236 263 272 277 290 295 296 302 305 308 314 320 323 324 323 320 319 320
235 233 232 233 233 232 232 234 234 231 228 225 223 221 216 212 211 210 206 199 194 193 187 174 174 181 176 172 177 180 178 177 176 174 174 171 169 172 174 171 174 178 176 172 173 180 189 195 202 206 203 198 198 210 220 230 245 258 265 275 287 291 295 301 303 308 316 320 323 325 324 322 322 323
236 232 232 231 230 229 229 230 230 228 225 223 221 220 216 213 212 214 213 208 200 192 184 177 179 184 181 181 188 190 184 175 171 173 177 176 174 175 178 173 169 171 173 171 172 181 189 195 204 208 203 199 202 215 229 241 248 253 262 274 282 287 295 302 305 311 318 322 325 327 327 326 326 327
240 233 231 231 230 228 226 226 225 225 223 221 220 219 213 209 209 210 210 211 211 208 202 197 196 196 196 198 200 197 189 179 175 175 176 173 168 165 166 167 169 176 178 173 173 187 188 188 201 209 200 196 198 212 230 242 246 250 259 266 276 288 297 305 312 317 322 325 329 331 331 330 330 331
244 240 233 231 231 229 225 223 222 221 219 214 213 213 209 205 206 208 208 211 215 215 213 211 208 204 203 204 201 195 189 184 182 179 176 172 166 159 154 153 161 176 181 177 181 196 186 182 199 205 194 192 194 205 230 245 243 244 251 257 273 295 306 313 322 326 328 331 335 335 335 334 334 333
242 242 237 232 231 231 227 223 221 220 218 209 204 202 197 194 196 200 203 207 210 210 211 212 209 205 205 205 201 195 190 187 184 178 170 167 165 157 143 143 152 170 181 183 190 197 182 179 196 197 187 191 192 194 219 241 238 232 238 252 275 302 317 322 328 331 334 339 341 340 339 337 336 335
237 238 237 233 231 231 229 225 221 217 213 204 192 184 179 179 183 186 190 195 199 202 206 207 205 206 207 206 202 196 193 193 189 177 163 163 166 156 141 151 160 167 180 185 190 199 186 179 190 191 184 192 196 188 195 218 230 229 231 250 279 307 323 326 326 331 342 349 347 344 342 338 337 339
234 235 236 236 232 231 230 226 219 212 206 197 185 180 176 172 173 176 177 180 183 186 191 193 194 197 199 197 195 194 194 195 192 184 175 171 167 157 151 161 159 160 177 183 185 192 185 176 185 187 178 187 199 193 188 198 215 231 246 277 298 308 320 326 324 330 347 354 352 350 345 339 339 340
231 232 234 236 232 231 232 225 215 210 204 194 189 186 178 170 171 174 175 174 173 173 175 177 177 176 177 178 180 182 185 185 186 187 183 174 165 160 160 160 159 161 175 182 183 186 181 177 183 185 179 184 196 192 189 193 202 216 239 274 289 297 315 330 332 334 342 347 350 351 348 342 341 339
228 227 229 230 226 227 232 224 211 208 203 196 193 191 183 178 176 174 171 170 169 166 166 165 162 159 157 160 164 167 170 171 173 179 180 172 165 165 162 163 171 168 162 176 182 182 180 179 182 189 195 205 192 184 191 201 202 208 223 242 265 285 310 328 330 327 330 335 340 341 341 343 346 341
226 224 225 226 221 219 222 216 206 205 204 199 197 195 193 190 184 175 167 166 164 160 156 151 148 146 146 150 156 157 156 157 157 163 169 168 165 166 165 170 170 146 143 171 174 168 175 180 178 185 199 217 190 173 185 200 200 207 230 246 261 279 300 313 316 317 321 327 330 329 331 336 341 340
223 224 225 223 213 207 206 204 204 206 205 200 196 196 196 193 185 175 166 162 158 153 148 143 140 141 143 146 151 151 148 146 145 147 154 156 151 149 153 161 156 141 150 168 167 161 171 174 171 180 189 194 184 174 187 197 193 202 229 248 269 286 299 310 313 315 318 320 320 321 328 334 335 335
220 219 217 210 202 199 200 202 205 205 202 197 193 192 191 187 181 172 162 156 152 147 142 139 139 143 146 145 148 150 148 147 146 146 148 150 149 143 137 134 135 138 150 159 160 157 160 160 164 174 174 176 183 189 201 199 186 198 230 259 280 285 296 309 312 315 318 321 321 324 330 335 333 330
214 209 205 199 196 198 200 202 202 198 194 191 189 187 184 179 174 166 158 154 150 143 137 136 137 143 146 145 147 149 146 145 146 144 142 144 146 144 138 130 125 126 134 143 146 144 143 146 151 150 146 160 188 197 201 194 177 196 246 289 290 285 299 312 316 321 323 325 327 329 330 330 328 327
207 200 197 194 194 194 194 193 190 186 186 187 186 183 178 173 168 162 156 152 148 141 136 134 135 139 143 143 144 144 141 139 140 138 135 135 136 137 134 128 123 120 119 120 123 125 127 131 137 138 136 143 165 174 179 197 196 191 265 302 296 293 304 313 320 326 328 328 329 328 325 323 323 324
191 186 186 185 182 182 182 180 177 176 177 178 177 175 171 167 163 159 156 152 146 140 137 136 136 136 138 139 139 139 137 135 135 135 133 130 129 130 127 120 115 112 109 109 112 112 112 117 123 126 124 127 135 136 138 185 218 206 226 289 302 301 304 317 325 328 330 329 327 322 319 318 319 319
166 166 167 166 164 164 166 168 167 166 164 163 162 162 162 160 158 157 156 153 147 142 139 137 135 134 135 134 133 132 130 127 129 132 131 127 127 130 126 118 112 107 106 110 114 115 113 112 111 109 111 118 121 116 122 174 230 240 243 284 314 312 311 323 328 328 330 329 323 319 320 322 322 322
148 147 146 145 145 146 146 146 148 149 150 152 152 152 152 152 151 151 149 145 142 140 138 135 133 134 135 133 129 127 124 123 126 129 129 127 129 131 126 119 117 115 110 106 107 110 111 112 109 105 106 112 111 106 123 195 224 248 281 309 316 314 320 328 329 329 330 327 323 322 327 328 327 327
138 135 134 134 135 136 135 134 136 138 139 141 143 145 145 144 144 145 143 139 137 138 138 135 134 135 136 132 128 125 122 122 126 130 129 128 128 128 125 120 120 123 119 111 106 102 101 103 103 102 109 119 118 113 138 233 230 240 297 323 320 318 327 331 328 329 329 326 324 326 328 329 330 332
137 133 133 135 136 137 136 137 137 138 138 138 137 139 141 141 142 142 141 139 139 139 138 136 135 135 134 130 128 126 123 122 124 126 125 125 125 125 124 119 118 119 117 114 112 107 103 102 99 94 96 103 113 124 165 263 294 313 313 316 319 320 325 330 329 326 324 323 323 323 324 326 329 333
134 136 137 138 140 139 138 139 140 140 139 139 139 138 139 141 142 141 140 140 140 138 136 134 132 131 132 130 129 127 124 122 121 121 122 123 122 121 119 117 117 118 116 115 115 112 111 116 122 125 127 132 137 140 164 224 295 335 324 315 320 323 323 328 327 320 318 321 321 319 320 323 327 331
131 136 135 135 139 138 133 137 142 143 142 141 140 139 139 140 142 141 141 141 139 137 135 132 129 129 130 130 128 126 121 120 121 122 123 121 119 117 114 113 115 116 115 115 116 117 119 127 147 165 169 173 177 158 134 194 250 325 330 319 322 328 327 325 321 318 320 323 323 323 322 321 324 328
124 130 131 132 137 137 135 138 141 141 141 140 139 138 138 137 138 139 140 138 135 133 132 131 131 132 131 128 125 123 121 121 124 123 121 119 117 115 113 113 115 115 114 115 116 121 125 127 144 180 191 201 200 156 124 162 237 319 343 331 325 327 328 323 317 318 323 322 322 326 325 321 320 321
123 126 129 133 135 134 136 139 138 137 138 138 135 132 132 132 134 135 134 132 129 129 129 128 129 129 127 125 124 123 124 125 123 120 120 119 117 116 115 115 116 115 115 117 118 121 125 120 112 101 60 19 92 95 112 157 179 311 338 351 348 329 323 324 320 319 323 323 325 326 320 314 313 313
122 124 127 132 134 133 134 136 135 135 135 134 131 130 130 131 131 129 127 127 129 130 128 126 125 124 124 125 126 125 126 126 121 118 119 118 117 118 119 118 119 121 122 126 128 126 120 104 88 74 57 52 65 67 41 65 117 346 312 340 0 348 330 326 322 320 321 323 325 325 320 317 317 315
114 119 123 128 132 133 132 131 131 132 131 128 127 128 129 129 128 126 127 129 131 129 126 123 122 123 127 130 128 123 121 121 117 116 117 116 116 119 120 120 124 127 128 132 130 118 104 92 91 95 91 85 88 91 94 191 172 181 259 305 336 344 339 325 314 316 322 326 326 325 325 328 327 324
108 111 117 124 128 130 129 129 128 128 127 126 124 124 124 125 127 128 130 132 130 127 125 124 125 128 131 132 128 120 117 116 114 114 114 113 115 119 121 123 128 131 131 129 120 107 102 103 105 103 97 91 91 117 172 197 181 137 200 278 309 329 337 335 318 304 305 315 325 329 332 333 327 323
104 106 110 117 122 124 126 127 126 126 125 123 122 123 124 126 129 130 130 129 128 127 126 126 129 129 128 126 124 122 119 118 115 114 115 116 119 123 124 126 129 129 127 120 110 105 109 111 101 87 79 72 38 298 50 80 67 26 17 263 289 310 319 324 327 323 314 312 322 332 336 334 328 324
98 102 107 111 115 119 123 125 125 125 124 123 125 128 129 129 128 128 128 127 128 129 129 127 127 125 121 120 124 126 125 123 119 118 118 120 123 124 122 122 122 120 115 111 108 110 115 111 99 94 88 68 43 38 47 44 18 358 23 13 328 306 290 290 307 320 317 300 295 336 345 335 326 322
92 98 105 110 114 117 120 122 124 125 125 125 128 131 131 129 129 130 130 131 132 133 132 129 127 125 122 120 121 122 123 123 122 120 120 120 120 119 118 119 118 115 114 114 114 115 115 107 95 93 87 66 46 43 40 23 8 20 26 1 330 318 301 291 301 304 289 264 255 324 346 336 328 325
89 93 100 107 112 116 119 122 124 125 126 127 129 131 132 131 131 132 133 134 135 135 134 132 130 127 123 119 120 121 122 123 122 121 119 118 117 118 119 119 117 114 116 119 120 120 120 112 102 95 85 74 65 56 35 6 348 359 6 353 337 336 341 335 325 320 304 264 255 321 337 335 333 332